TimeEST,TemperatureF,Dew PointF,Humidity,Sea Level PressureIn,VisibilityMPH,Wind Direction,Wind SpeedMPH,Gust SpeedMPH,PrecipitationIn,Events,Conditions,WindDirDegrees,DateUTC
12:02 AM,30.2,26.6,86,29.66,4.0,WNW,23.0,34.5,0.00,Snow,Light Snow,290,2012-12-27 05:02:00
12:52 AM,30.0,25.0,82,29.72,9.0,WNW,21.9,36.8,0.00,,Overcast,290,2012-12-27 05:52:00
1:52 AM,28.9,24.1,82,29.75,10.0,WNW,24.2,35.7,0.00,Rain,Light Freezing Rain,300,2012-12-27 06:52:00
2:06 AM,28.4,24.8,86,29.72,7.0,WNW,24.2,36.8,0.00,Snow,Light Snow,290,2012-12-27 07:06:00
2:52 AM,28.0,23.0,81,29.78,7.0,WNW,18.4,36.8,0.00,Snow,Light Snow,300,2012-12-27 07:52:00
3:16 AM,28.4,23.0,80,29.74,7.0,West,19.6,32.2,0.00,Snow,Light Snow,280,2012-12-27 08:16:00
3:32 AM,28.4,23.0,80,29.75,8.0,NW,26.5,46.0,0.00,Snow,Light Snow,310,2012-12-27 08:32:00
3:52 AM,28.0,23.0,81,29.80,8.0,WNW,23.0,36.8,0.00,,Overcast,290,2012-12-27 08:52:00
4:05 AM,28.4,23.0,80,29.76,6.0,WNW,21.9,34.5,0.00,Snow,Light Snow,290,2012-12-27 09:05:00
4:52 AM,27.0,23.0,85,29.83,10.0,WNW,28.8,49.5,0.00,,Overcast,300,2012-12-27 09:52:00
4:59 AM,26.6,23.0,86,29.79,10.0,WNW,24.2,44.9,N/A,,Overcast,300,2012-12-27 09:59:00
5:52 AM,27.0,21.0,78,29.87,10.0,WNW,21.9,38.0,0.00,,Overcast,290,2012-12-27 10:52:00
6:06 AM,26.6,21.2,80,29.83,10.0,WNW,26.5,39.1,N/A,,Overcast,300,2012-12-27 11:06:00
6:50 AM,26.6,21.2,80,29.86,10.0,WNW,18.4,26.5,N/A,,Overcast,290,2012-12-27 11:50:00
6:52 AM,27.0,21.9,81,29.91,10.0,WNW,18.4,27.6,N/A,,Overcast,290,2012-12-27 11:52:00
7:52 AM,26.1,21.0,81,29.93,10.0,NW,18.4,33.4,N/A,,Overcast,310,2012-12-27 12:52:00
8:52 AM,26.1,21.0,81,29.96,10.0,WNW,20.7,29.9,N/A,,Overcast,300,2012-12-27 13:52:00
9:52 AM,26.1,21.9,84,30.00,10.0,NW,13.8,20.7,N/A,,Overcast,310,2012-12-27 14:52:00
10:21 AM,26.6,21.2,80,29.94,6.0,WNW,12.7,27.6,0.00,,Overcast,290,2012-12-27 15:21:00
10:37 AM,26.6,21.2,80,29.94,3.0,WNW,13.8,28.8,0.00,,Overcast,300,2012-12-27 15:37:00
10:50 AM,26.6,23.0,86,29.95,2.5,WNW,11.5,17.3,0.00,,Overcast,300,2012-12-27 15:50:00
10:52 AM,26.1,23.0,88,30.00,2.5,WNW,11.5,-,0.00,,Overcast,300,2012-12-27 15:52:00
11:02 AM,26.6,21.2,80,29.95,1.5,WNW,11.5,21.9,N/A,,Overcast,300,2012-12-27 16:02:00
11:21 AM,26.6,23.0,86,29.94,2.0,WNW,10.4,19.6,N/A,,Overcast,300,2012-12-27 16:21:00
11:28 AM,26.6,21.2,80,29.94,1.0,WNW,12.7,27.6,N/A,,Overcast,300,2012-12-27 16:28:00
11:41 AM,26.6,23.0,86,29.94,1.5,WNW,11.5,19.6,0.00,Snow,Light Snow,300,2012-12-27 16:41:00
11:52 AM,26.1,21.9,84,30.00,2.0,WNW,17.3,24.2,0.00,,Overcast,300,2012-12-27 16:52:00
12:25 PM,26.6,21.2,80,29.94,5.0,West,17.3,26.5,N/A,,Overcast,280,2012-12-27 17:25:00
12:52 PM,25.0,21.9,88,30.00,6.0,WNW,15.0,24.2,N/A,,Overcast,290,2012-12-27 17:52:00
1:10 PM,24.8,21.2,86,29.94,8.0,WNW,13.8,24.2,N/A,,Overcast,300,2012-12-27 18:10:00
1:52 PM,25.0,21.9,88,30.00,9.0,WNW,13.8,20.7,N/A,,Overcast,300,2012-12-27 18:52:00
2:52 PM,25.0,21.9,88,30.02,9.0,WNW,10.4,19.6,N/A,,Overcast,290,2012-12-27 19:52:00
3:52 PM,25.0,21.9,88,30.05,6.0,WNW,11.5,-,N/A,,Overcast,300,2012-12-27 20:52:00
4:52 PM,25.0,21.0,85,30.08,2.5,WNW,11.5,16.1,N/A,,Overcast,300,2012-12-27 21:52:00
5:09 PM,24.8,21.2,86,30.00,3.0,WNW,11.5,19.6,N/A,,Overcast,290,2012-12-27 22:09:00
5:52 PM,25.0,21.0,85,30.10,9.0,WNW,8.1,19.6,0.00,,Overcast,300,2012-12-27 22:52:00
6:03 PM,24.8,21.2,86,30.02,10.0,NW,8.1,16.1,N/A,,Overcast,310,2012-12-27 23:03:00
6:52 PM,25.0,21.0,85,30.12,9.0,WNW,8.1,-,N/A,,Overcast,300,2012-12-27 23:52:00
7:52 PM,24.1,21.0,88,30.12,10.0,NW,5.8,-,N/A,,Overcast,310,2012-12-28 00:52:00
8:39 PM,24.8,19.4,80,30.04,10.0,NW,4.6,-,N/A,,Overcast,310,2012-12-28 01:39:00
8:52 PM,24.1,19.9,84,30.11,9.0,Variable,4.6,-,N/A,,Overcast,0,2012-12-28 01:52:00
9:47 PM,24.8,19.4,80,30.05,8.0,WNW,5.8,-,N/A,,Overcast,290,2012-12-28 02:47:00
9:52 PM,24.1,21.0,88,30.13,8.0,WNW,5.8,-,N/A,,Overcast,300,2012-12-28 02:52:00
10:52 PM,25.0,21.0,85,30.12,6.0,NW,4.6,-,N/A,,Overcast,310,2012-12-28 03:52:00
11:52 PM,25.0,21.0,85,30.12,8.0,NNW,3.5,-,N/A,,Overcast,340,2012-12-28 04:52:00